Time,TemperatureF,DewpointF,PressureIn,WindDirection,WindDirectionDegrees,WindSpeedMPH,WindSpeedGustMPH,Humidity,HourlyPrecipIn,Conditions,Clouds,dailyrainin,SoftwareType,DateUTC
2013-01-09 00:15:00,27.3,25.0,30.36,ESE,113,0.0,1.0,92,0.00,,,0.00,weatherlink.com 1.10,2013-01-09 05:15:00,
2013-01-09 00:52:00,29.0,26.0,30.36,NNE,27,0.0,1.0,89,0.00,,,0.00,weatherlink.com 1.10,2013-01-09 05:52:00,
2013-01-09 01:10:00,29.1,26.0,30.35,NNW,347,0.0,2.0,89,0.00,,,0.00,weatherlink.com 1.10,2013-01-09 06:10:00,
2013-01-09 01:27:00,32.9,28.0,30.34,ENE,59,0.0,3.0,81,0.00,,,0.00,weatherlink.com 1.10,2013-01-09 06:27:00,
2013-01-09 01:47:00,36.6,28.0,30.33,ENE,68,3.0,7.0,71,0.00,,,0.00,weatherlink.com 1.10,2013-01-09 06:47:00,
2013-01-09 02:05:00,39.2,28.0,30.32,ENE,68,3.0,8.0,64,0.00,,,0.00,weatherlink.com 1.10,2013-01-09 07:05:00,
2013-01-09 02:23:00,38.6,27.0,30.32,East,87,1.0,5.0,63,0.00,,,0.00,weatherlink.com 1.10,2013-01-09 07:23:00,
2013-01-09 02:43:00,37.2,26.0,30.32,East,82,3.0,5.0,65,0.00,,,0.00,weatherlink.com 1.10,2013-01-09 07:43:00,
2013-01-09 03:01:00,33.8,26.0,30.33,ESE,112,3.0,3.0,74,0.00,,,0.00,weatherlink.com 1.10,2013-01-09 08:01:00,
2013-01-09 03:19:00,31.8,26.0,30.33,ESE,111,1.0,3.0,80,0.00,,,0.00,weatherlink.com 1.10,2013-01-09 08:19:00,
2013-01-09 03:39:00,30.7,26.0,30.33,ESE,112,2.0,2.0,83,0.00,,,0.00,weatherlink.com 1.10,2013-01-09 08:39:00,
2013-01-09 03:57:00,30.2,26.0,30.33,ESE,112,1.0,2.0,85,0.00,,,0.00,weatherlink.com 1.10,2013-01-09 08:57:00,
2013-01-09 04:15:00,29.8,26.0,30.33,ESE,112,0.0,2.0,86,0.00,,,0.00,weatherlink.com 1.10,2013-01-09 09:15:00,
2013-01-09 04:34:00,28.8,25.0,30.32,ESE,111,0.0,0.0,86,0.00,,,0.00,weatherlink.com 1.10,2013-01-09 09:34:00,
2013-01-09 04:52:00,27.8,25.0,30.32,ESE,111,0.0,0.0,89,0.00,,,0.00,weatherlink.com 1.10,2013-01-09 09:52:00,
2013-01-09 05:12:00,27.5,25.0,30.32,ESE,111,0.0,1.0,91,0.00,,,0.00,weatherlink.com 1.10,2013-01-09 10:12:00,
2013-01-09 05:30:00,27.1,25.0,30.32,ESE,112,0.0,2.0,91,0.00,,,0.00,weatherlink.com 1.10,2013-01-09 10:30:00,
2013-01-09 05:48:00,26.7,25.0,30.32,ESE,112,0.0,1.0,91,0.00,,,0.00,weatherlink.com 1.10,2013-01-09 10:48:00,
2013-01-09 06:08:00,26.6,24.0,30.31,ESE,105,0.0,1.0,91,0.00,,,0.00,weatherlink.com 1.10,2013-01-09 11:08:00,
2013-01-09 06:26:00,27.4,26.0,30.30,ESE,105,0.0,1.0,93,0.00,,,0.00,weatherlink.com 1.10,2013-01-09 11:26:00,
2013-01-09 06:44:00,30.7,28.0,30.29,NNE,29,0.0,2.0,90,0.00,,,0.00,weatherlink.com 1.10,2013-01-09 11:44:00,
2013-01-09 07:02:00,34.7,31.0,30.28,NE,44,0.0,3.0,86,0.00,,,0.00,weatherlink.com 1.10,2013-01-09 12:02:00,
2013-01-09 07:39:00,29.0,26.0,30.31,ESE,114,0.0,2.0,87,0.00,,,0.00,weatherlink.com 1.10,2013-01-09 12:39:00,
2013-01-09 07:57:00,30.3,27.0,30.31,ESE,116,0.0,2.0,88,0.00,,,0.00,weatherlink.com 1.10,2013-01-09 12:57:00,
2013-01-09 08:17:00,35.1,30.0,30.32,ESE,106,0.0,2.0,82,0.00,,,0.00,weatherlink.com 1.10,2013-01-09 13:17:00,
2013-01-09 08:35:00,40.3,33.0,30.32,NE,54,2.0,4.0,74,0.00,,,0.00,weatherlink.com 1.10,2013-01-09 13:35:00,
2013-01-09 08:53:00,42.5,33.0,30.32,NNE,14,3.0,6.0,69,0.00,,,0.00,weatherlink.com 1.10,2013-01-09 13:53:00,
2013-01-09 09:13:00,44.2,33.0,30.31,ENE,61,4.0,7.0,65,0.00,,,0.00,weatherlink.com 1.10,2013-01-09 14:13:00,
2013-01-09 09:30:00,44.5,33.0,30.32,NE,49,6.0,8.0,64,0.00,,,0.00,weatherlink.com 1.10,2013-01-09 14:30:00,
2013-01-09 09:50:00,44.9,33.0,30.32,ENE,74,3.0,9.0,64,0.00,,,0.00,weatherlink.com 1.10,2013-01-09 14:50:00,
2013-01-09 10:08:00,45.2,34.0,30.33,NNE,19,4.0,14.0,64,0.00,,,0.00,weatherlink.com 1.10,2013-01-09 15:08:00,
2013-01-09 10:26:00,45.1,34.0,30.34,ENE,75,3.0,17.0,65,0.00,,,0.00,weatherlink.com 1.10,2013-01-09 15:26:00,
2013-01-09 10:46:00,44.6,34.0,30.34,NNE,23,3.0,10.0,67,0.00,,,0.00,weatherlink.com 1.10,2013-01-09 15:46:00,
2013-01-09 11:04:00,43.9,36.0,30.32,NE,51,14.0,16.0,74,0.00,,,0.00,weatherlink.com 1.10,2013-01-09 16:04:00,
2013-01-09 11:22:00,43.2,38.0,30.28,ENE,58,6.0,16.0,81,0.01,,,0.01,weatherlink.com 1.10,2013-01-09 16:22:00,
2013-01-09 11:42:00,44.3,39.0,30.25,ENE,67,8.0,17.0,83,0.02,,,0.02,weatherlink.com 1.10,2013-01-09 16:42:00,
2013-01-09 12:00:00,45.6,40.0,30.24,ENE,78,8.0,14.0,82,0.02,,,0.02,weatherlink.com 1.10,2013-01-09 17:00:00,
2013-01-09 12:18:00,44.7,40.0,30.24,East,81,5.0,12.0,84,0.02,,,0.03,weatherlink.com 1.10,2013-01-09 17:18:00,
2013-01-09 12:36:00,43.4,38.0,30.27,SE,136,2.0,10.0,82,0.01,,,0.03,weatherlink.com 1.10,2013-01-09 17:36:00,
2013-01-09 12:56:00,42.5,38.0,30.28,ENE,77,2.0,7.0,84,0.01,,,0.03,weatherlink.com 1.10,2013-01-09 17:56:00,
2013-01-09 13:14:00,42.0,39.0,30.27,NE,47,7.0,9.0,90,0.00,,,0.03,weatherlink.com 1.10,2013-01-09 18:14:00,
2013-01-09 13:32:00,41.3,40.0,30.29,ENE,72,5.0,11.0,93,0.01,,,0.04,weatherlink.com 1.10,2013-01-09 18:32:00,
2013-01-09 13:52:00,41.6,40.0,30.28,ENE,63,13.0,13.0,93,0.01,,,0.04,weatherlink.com 1.10,2013-01-09 18:52:00,
2013-01-09 14:10:00,42.4,40.0,30.28,ENE,65,6.0,13.0,92,0.01,,,0.04,weatherlink.com 1.10,2013-01-09 19:10:00,
2013-01-09 14:28:00,43.1,41.0,30.28,NE,40,8.0,12.0,92,0.00,,,0.04,weatherlink.com 1.10,2013-01-09 19:28:00,
2013-01-09 14:46:00,43.6,41.0,30.28,SE,127,3.0,14.0,91,0.00,,,0.04,weatherlink.com 1.10,2013-01-09 19:46:00,
2013-01-09 15:06:00,43.9,41.0,30.29,NNE,18,3.0,16.0,90,0.00,,,0.04,weatherlink.com 1.10,2013-01-09 20:06:00,
2013-01-09 15:24:00,44.0,41.0,30.29,East,92,5.0,10.0,90,0.00,,,0.04,weatherlink.com 1.10,2013-01-09 20:24:00,
2013-01-09 15:42:00,44.0,41.0,30.29,NE,51,4.0,10.0,90,0.00,,,0.04,weatherlink.com 1.10,2013-01-09 20:42:00,
2013-01-09 16:03:00,44.2,41.0,30.30,ENE,58,2.0,16.0,89,0.00,,,0.04,weatherlink.com 1.10,2013-01-09 21:03:00,
2013-01-09 16:19:00,44.3,41.0,30.30,ENE,72,4.0,16.0,89,0.00,,,0.04,weatherlink.com 1.10,2013-01-09 21:19:00,
2013-01-09 16:37:00,44.1,41.0,30.30,NE,41,5.0,14.0,90,0.00,,,0.04,weatherlink.com 1.10,2013-01-09 21:37:00,
2013-01-09 16:57:00,43.7,41.0,30.32,ENE,63,4.0,11.0,90,0.00,,,0.04,weatherlink.com 1.10,2013-01-09 21:57:00,
2013-01-09 17:15:00,43.4,41.0,30.32,ESE,120,4.0,12.0,90,0.00,,,0.04,weatherlink.com 1.10,2013-01-09 22:15:00,
2013-01-09 17:33:00,43.0,40.0,30.33,NNE,29,5.0,11.0,90,0.00,,,0.04,weatherlink.com 1.10,2013-01-09 22:33:00,
2013-01-09 17:53:00,42.8,40.0,30.34,NE,49,5.0,13.0,90,0.00,,,0.04,weatherlink.com 1.10,2013-01-09 22:53:00,
2013-01-09 18:11:00,42.7,40.0,30.35,East,98,5.0,11.0,90,0.00,,,0.04,weatherlink.com 1.10,2013-01-09 23:11:00,
2013-01-09 18:29:00,42.3,39.0,30.37,ENE,66,8.0,10.0,89,0.00,,,0.04,weatherlink.com 1.10,2013-01-09 23:29:00,
2013-01-09 18:49:00,41.9,39.0,30.38,NE,54,5.0,11.0,90,0.00,,,0.04,weatherlink.com 1.10,2013-01-09 23:49:00,
2013-01-09 19:07:00,41.8,39.0,30.39,NE,46,4.0,12.0,90,0.00,,,0.04,weatherlink.com 1.10,2013-01-10 00:07:00,
2013-01-09 19:25:00,42.0,39.0,30.40,ENE,72,5.0,11.0,90,0.00,,,0.04,weatherlink.com 1.10,2013-01-10 00:25:00,
2013-01-09 20:02:00,41.8,39.0,30.43,SE,127,3.0,14.0,90,0.00,,,0.04,weatherlink.com 1.10,2013-01-10 01:02:00,
2013-01-09 20:20:00,41.5,39.0,30.43,East,97,9.0,13.0,90,0.00,,,0.04,weatherlink.com 1.10,2013-01-10 01:20:00,
2013-01-09 20:40:00,41.1,39.0,30.44,ENE,74,4.0,9.0,91,0.00,,,0.04,weatherlink.com 1.10,2013-01-10 01:40:00,
2013-01-09 20:58:00,41.0,39.0,30.45,East,82,5.0,10.0,91,0.00,,,0.04,weatherlink.com 1.10,2013-01-10 01:58:00,
2013-01-09 21:16:00,40.8,39.0,30.45,East,96,4.0,13.0,92,0.00,,,0.04,weatherlink.com 1.10,2013-01-10 02:16:00,
2013-01-09 21:36:00,40.5,38.0,30.45,East,95,4.0,11.0,92,0.00,,,0.04,weatherlink.com 1.10,2013-01-10 02:36:00,
2013-01-09 21:54:00,40.0,38.0,30.46,East,93,4.0,11.0,91,0.00,,,0.04,weatherlink.com 1.10,2013-01-10 02:54:00,
2013-01-09 22:13:00,39.5,37.0,30.47,NE,48,3.0,7.0,92,0.00,,,0.04,weatherlink.com 1.10,2013-01-10 03:13:00,
2013-01-09 22:32:00,39.4,37.0,30.48,NE,43,0.0,7.0,90,0.00,,,0.04,weatherlink.com 1.10,2013-01-10 03:32:00,
2013-01-09 22:49:00,39.1,37.0,30.49,NE,56,2.0,5.0,91,0.00,,,0.04,weatherlink.com 1.10,2013-01-10 03:49:00,
2013-01-09 23:07:00,38.9,36.0,30.49,NE,43,1.0,5.0,89,0.00,,,0.04,weatherlink.com 1.10,2013-01-10 04:07:00,
2013-01-09 23:26:00,38.1,36.0,30.50,ENE,71,0.0,3.0,90,0.00,,,0.04,weatherlink.com 1.10,2013-01-10 04:26:00,
2013-01-09 23:43:00,37.6,35.0,30.49,ESE,105,0.0,4.0,90,0.00,,,0.04,weatherlink.com 1.10,2013-01-10 04:43:00,